Content
SEND FEEDBACK

Daily
Averages
Monthly
Summary
Brazil

ILHEUS, BAHIA


Home > South America > Brazil > Bahia
Elevation: 16 feet     Latitude: 14 50S     Longitude: 039 02W

WEATHER
 
SELECT A DAY
Number of Records: 98,399;   Date Range: 7/16/96 - 12/16/14
 
SHARE

PRINT THIS DATA

[ ← Previous Day ]
WEATHER ALMANAC - JANUARY 31, 2013
[ Next Day → ]
[ °C ]   °F
Weather ElementAverageHighLow
Temperature79.7 °F86 °F (3:00 pm)71.6 °F (5:00 am)
Dewpoint72.6 °F75.2 °F (12:00 pm)69.8 °F (2:00 am)
Humidity78.9 %94 % (1:00 am)58 % (4:00 pm)
Barometer29.90 in29.95 in (10:00 am)29.83 in (5:00 pm)
Wind Speed7.3 mph11.5 mph (1:00 pm)
Weather ElementAverage
Visibility7.3 mi
Wind DirectionESE (119.3 °)

Weather ElementTotal
Precipitation---
Cooling Degree Days13.8 (Base 65)
Growing Degree Days28.8 (Base 50)
Averaged from 27 records on January 31, 2013
WEATHER CONDITIONS BREAKOUT
WIND DIRECTION BREAKOUT
WEATHER BY HOUR - JANUARY 31, 2013
[ °C ]   °F
Local TimeTemperatureDewpointHumidityBarometerVisibilityWind DirectionWind SpeedGust SpeedPrecipitationEventsConditions
1:00 AM73.4 °F71.6 °F94 %29.92 in6.2 miWest (270°)3.5 mphScattered Clouds
2:00 AM73.4 °F69.8 °F88 %29.92 in6.2 miWest (260°)5.8 mphPartly Cloudy
3:00 AM73.4 °F71.6 °F94 %29.92 in6.2 miWest (260°)5.8 mphPartly Cloudy
4:00 AM72.0 °F71.0 °F94 %29.91 in12.0 miWest (260°)5.8 mph
4:00 AM73.4 °F69.8 °F88 %29.89 inWest (260°)5.8 mphClear
5:00 AM71.6 °F69.8 °F94 %29.89 in6.2 miWest (260°)5.8 mphPartly Cloudy
6:00 AM71.6 °F69.8 °F94 %29.89 in6.2 miWest (260°)6.9 mphPartly Cloudy
7:00 AM71.6 °F69.8 °F94 %29.89 in6.2 miWest (260°)6.9 mphPartly Cloudy
8:00 AM75.2 °F71.6 °F89 %29.92 in6.2 miWest (260°)3.5 mphPartly Cloudy
9:00 AM80.6 °F73.4 °F79 %29.92 in6.2 miWest (260°)5.8 mphPartly Cloudy
10:00 AM84.0 °F73.0 °F63 %29.95 in12.0 miNorth (10°)9.2 mphPartly Cloudy
10:00 AM84.2 °F73.4 °F70 %29.95 in6.2 miNorth (10°)9.2 mphScattered Clouds
11:00 AM84.2 °F73.4 °F70 %29.95 in6.2 miNNE (20°)10.4 mphScattered Clouds
12:00 PM84.2 °F75.2 °F74 %29.92 in6.2 miNNE (30°)8.1 mphScattered Clouds
1:00 PM84.2 °F75.2 °F74 %29.92 in6.2 miNNE (20°)11.5 mphPartly Cloudy
2:00 PM84.2 °F75.2 °F74 %29.89 in6.2 miNE (50°)11.5 mphPartly Cloudy
3:00 PM86.0 °F75.2 °F70 %29.86 in6.2 miNE (40°)11.5 mphPartly Cloudy
4:00 PM85.0 °F72.0 °F58 %29.86 in12.0 miNE (40°)9.2 mphScattered Clouds
4:00 PM86.0 °F71.6 °F62 %29.86 in6.2 miNE (40°)9.2 mphPartly Cloudy
5:00 PM84.2 °F73.4 °F70 %29.83 in6.2 miENE (60°)9.2 mphPartly Cloudy
6:00 PM84.2 °F73.4 °F70 %29.83 inNE (40°)9.2 mphClear
7:00 PM82.4 °F73.4 °F74 %29.86 inNE (40°)8.1 mphClear
8:00 PM80.6 °F73.4 °F79 %29.86 inNE (50°)6.9 mphClear
9:00 PM80.6 °F73.4 °F79 %29.89 inNE (50°)5.8 mphClear
10:00 PM80.0 °F74.0 °F77 %29.90 in12.0 miNE (40°)4.6 mphScattered Clouds
10:00 PM80.6 °F73.4 °F79 %29.89 in6.2 miNE (40°)4.6 mphPartly Cloudy
11:00 PM80.6 °F73.4 °F79 %29.92 in6.2 miNNE (30°)4.6 mphScattered Clouds
Hourly data recorded from SBIL, located miles away from Ilheus, Bahia







STORIES FROM OUR PARTNERS